Temperature
26 26 25 25 23 22 24 25 26 25 24 25 24 24 23 22 21 19 19 19 20 20 20 19 19 19 19 19 19 19 19 19 19 19 19 19 19 18 18 18 18 18 18 18 18 18 18 18 18
26 26 25 25 23 23 24 25 25 25 25 24 24 23 22 21 19 18 19 20 20 20 20 20 19 19 19 19 19 19 19 19 19 19 19 18 18 18 18 18 18 18 18 18 18 18 18 18 18
27 26 26 23 24 24 25 26 26 26 26 25 24 23 22 21 19 19 20 20 20 20 20 20 19 19 19 19 19 19 19 19 19 18 18 18 18 18 18 18 18 18 18 18 18 18 18 17 17
27 26 26 23 25 26 27 26 26 26 26 25 24 23 22 21 21 20 20 20 21 20 20 20 20 19 19 19 19 19 19 19 19 18 18 18 18 18 18 18 18 18 18 18 18 18 18 17 17
27 26 23 24 26 27 28 27 27 26 25 24 23 22 21 21 21 21 21 21 21 20 20 20 20 19 19 19 19 19 19 19 19 18 18 18 18 18 18 18 18 18 18 18 18 18 17 17 17
27 24 23 24 26 28 28 27 26 25 24 23 23 22 21 21 21 21 21 21 21 21 20 20 20 19 19 19 19 19 19 19 18 18 18 18 18 18 18 18 18 18 18 18 18 18 18 17 17
27 23 24 25 26 27 28 27 26 25 24 24 23 22 21 20 21 21 21 21 21 21 20 20 20 19 19 19 19 19 19 18 18 18 18 18 18 18 18 18 18 18 18 18 18 18 18 17 17
29 24 25 25 26 27 28 28 26 25 25 24 23 22 21 20 21 21 21 21 21 20 20 20 20 20 19 19 19 19 19 19 18 18 18 18 18 18 18 18 18 18 18 18 18 18 18 17 17
29 24 24 26 27 27 28 28 27 26 25 25 24 23 22 21 21 20 20 20 20 20 20 20 20 20 19 19 19 19 19 19 18 18 18 18 18 18 18 18 18 18 18 18 18 18 18 18 17
28 24 26 27 28 27 28 28 27 26 25 24 23 23 22 21 21 21 20 20 20 20 20 20 20 20 20 19 19 19 19 19 19 18 18 18 18 18 18 18 18 18 18 18 18 18 18 18 17
28 27 28 29 30 29 28 28 27 25 24 23 23 22 22 22 21 21 21 21 21 20 20 20 20 20 19 19 19 19 19 19 18 18 18 18 18 18 18 18 18 18 18 18 18 18 18 18 18
29 29 30 30 30 30 28 28 27 26 25 25 24 23 23 22 22 21 21 21 21 20 20 20 20 19 19 19 19 19 19 19 18 18 18 18 18 18 18 18 18 18 18 18 18 18 18 18 18
29 29 31 31 31 30 29 28 27 26 25 24 24 23 23 22 22 22 21 21 21 21 20 20 20 19 19 19 19 19 19 19 19 18 18 18 18 18 18 18 18 18 18 18 18 18 18 18 18
29 30 30 31 31 30 29 28 27 26 25 24 23 23 23 23 23 22 22 21 21 21 20 20 20 19 19 19 19 19 19 19 19 18 18 18 18 18 18 18 18 18 18 18 18 18 18 18 18
30 28 28 29 30 30 28 26 26 26 25 24 24 24 23 23 23 23 22 22 21 21 21 20 20 19 19 19 19 19 19 19 19 19 18 18 18 18 18 18 18 18 18 18 18 18 18 18 18
28 27 27 28 29 29 27 25 25 26 25 24 24 24 24 23 23 23 23 22 22 21 21 20 20 20 20 19 19 19 19 19 19 19 19 18 18 18 18 18 18 18 18 18 18 18 18 18 18
25 26 27 27 28 28 26 25 25 26 25 24 24 24 24 23 23 23 23 23 22 22 21 21 21 20 20 20 19 19 19 19 19 19 19 19 19 18 18 18 18 18 18 18 18 18 18 18 18
25 26 27 27 28 28 26 25 25 26 25 25 24 24 24 24 23 23 23 23 22 22 21 21 21 20 20 20 19 19 19 19 19 19 19 19 19 19 18 18 18 18 18 18 18 18 18 18 18
26 27 27 27 29 28 26 25 25 26 26 25 25 24 24 24 24 24 23 23 22 22 21 21 21 21 20 20 20 19 19 19 19 19 19 19 19 19 19 18 18 18 18 18 18 18 18 18 18
26 26 26 27 28 28 26 26 26 26 25 25 25 25 24 24 24 23 23 23 22 22 22 21 21 21 20 20 20 20 20 19 19 19 19 19 19 19 19 19 18 18 18 18 18 18 18 18 18
26 26 27 27 27 27 26 25 25 25 26 26 26 25 25 24 24 24 23 23 23 22 22 22 21 21 21 20 20 20 19 19 19 19 19 19 19 19 19 19 18 18 18 18 18 18 18 18 18
25 27 28 28 26 24 25 23 24 24 24 25 25 25 25 24 24 24 24 23 23 23 22 22 22 21 21 20 20 20 20 19 20 20 19 19 19 19 19 18 18 18 18 18 18 18 18 18 18
27 28 28 27 25 24 24 23 23 23 23 24 25 25 25 25 24 24 24 24 23 23 22 22 22 21 21 20 20 20 20 20 20 19 19 19 19 19 18 18 18 18 18 18 18 18 18 18 18
28 27 25 22 21 23 24 24 23 22 24 25 25 26 25 25 25 24 24 24 23 23 22 22 22 21 21 21 20 20 20 20 19 19 19 19 19 19 19 18 18 18 18 18 18 18 18 18 17
26 22 21 22 20 22 23 24 23 24 25 25 25 26 26 25 25 24 24 23 23 23 22 22 22 21 21 21 20 20 20 20 20 19 19 19 19 19 19 19 18 18 18 18 18 18 18 18 17
25 22 21 22 22 21 23 24 24 25 26 27 27 27 26 25 25 24 24 24 23 23 23 22 22 22 21 21 21 20 20 20 19 19 19 19 19 19 19 19 18 18 18 18 18 18 18 18 17
25 22 21 20 22 22 22 23 24 25 25 25 26 26 26 26 25 25 24 24 24 23 23 23 22 22 21 21 21 20 20 20 19 19 19 19 19 19 18 18 18 18 18 18 18 18 17 17 17
25 23 20 20 21 22 23 23 23 24 24 24 24 24 25 25 25 24 24 24 24 24 23 23 22 22 22 21 21 20 20 20 19 19 19 19 18 18 18 18 18 18 18 18 18 17 17 17 17
25 24 21 18 19 20 22 22 24 23 23 23 23 24 25 25 24 24 24 24 23 23 23 22 22 21 21 21 21 20 20 19 19 19 18 18 18 18 18 18 18 18 17 17 17 17 17 17 17
25 23 20 21 21 19 20 21 24 23 23 24 24 24 25 24 24 24 23 23 23 22 22 22 22 21 21 21 20 20 19 19 19 19 18 18 18 18 18 18 17 17 17 17 17 17 17 17 17
Wind_Speed
5 3 2 1 5 6 8 7 9 10 7 10 12 11 11 8 7 10 5 13 14 11 13 16 17 17 18 18 18 19 19 19 19 20 20 20 20 20 19 19 19 19 19 18 18 18 19 19 19
2 1 2 3 6 7 6 9 15 14 13 15 15 16 12 10 11 12 8 13 14 13 14 16 18 17 18 18 18 18 18 18 19 19 19 19 19 19 19 19 19 18 18 18 17 17 17 17 17
2 1 3 4 4 7 8 12 17 16 13 12 9 9 7 9 11 8 11 15 13 12 14 17 18 18 18 18 17 18 18 18 18 18 18 18 18 18 18 18 18 17 16 16 16 16 15 15 15
1 3 4 5 6 8 12 14 18 17 13 12 12 9 6 8 8 13 18 16 14 10 14 17 18 18 17 17 17 17 17 17 17 17 17 17 17 17 17 17 17 16 15 15 15 14 14 13 12
3 4 6 5 6 8 12 16 15 13 7 12 14 11 8 8 19 21 18 17 15 10 13 17 18 17 17 17 16 16 16 16 17 17 16 16 16 16 16 16 16 15 14 14 13 13 12 11 10
3 4 5 4 6 7 10 15 17 19 19 16 15 12 7 14 20 19 17 15 14 12 12 16 17 17 17 16 16 16 16 16 16 16 16 16 15 15 15 15 15 14 13 12 11 11 10 9 9
4 4 2 3 5 8 10 13 16 18 17 11 13 9 8 13 17 18 16 15 12 12 11 12 15 16 16 16 16 16 16 15 15 15 15 15 15 14 14 14 14 13 12 11 10 9 8 7 7
5 4 3 2 5 6 9 10 16 19 13 15 10 9 10 14 18 17 15 14 12 9 9 10 12 13 14 15 15 15 15 15 15 15 14 14 14 13 13 13 12 12 11 10 9 7 6 5 5
4 5 2 4 6 6 10 14 10 11 15 9 6 10 17 21 21 18 15 12 10 10 8 9 10 11 13 13 14 14 14 14 14 13 14 12 11 11 11 11 11 11 10 8 7 5 4 2 2
4 4 5 6 7 9 11 15 11 9 12 10 14 15 18 21 21 19 17 15 12 12 10 9 9 10 12 11 12 11 11 12 11 11 11 10 9 9 9 10 10 9 8 7 5 3 2 0 1
3 5 4 4 7 9 9 9 7 14 11 17 23 22 19 19 18 17 16 15 15 13 12 10 10 11 10 9 11 9 9 10 10 11 11 9 8 7 7 7 7 7 6 4 3 2 3 2 2
0 2 4 5 7 9 9 7 7 9 13 19 22 22 18 17 17 17 16 15 14 13 12 11 11 10 10 11 9 9 8 8 8 11 12 10 7 6 6 5 5 5 5 4 3 3 4 3 2
1 1 2 5 8 8 9 9 9 9 15 18 20 18 17 16 14 13 15 15 14 12 12 12 11 10 10 9 8 9 8 9 10 11 12 12 8 5 6 5 6 6 6 5 4 4 3 2 1
3 2 0 3 6 8 13 9 9 12 18 19 19 16 16 16 15 14 14 13 13 13 13 11 11 10 10 8 6 8 10 10 10 11 12 13 11 8 6 5 5 6 7 7 5 4 3 2 1
4 3 3 1 4 6 13 7 9 17 20 19 17 16 15 14 16 17 17 15 14 14 13 11 11 9 9 8 7 8 10 11 9 10 12 13 12 10 8 5 4 6 7 7 4 2 1 1 1
5 4 2 4 4 5 11 6 8 16 20 18 16 15 14 14 15 16 16 14 13 14 13 12 12 10 9 7 6 6 9 10 9 10 11 12 12 12 8 5 4 6 6 5 3 2 1 1 1
5 1 2 5 3 4 7 7 10 13 18 17 16 15 14 13 13 14 16 15 14 15 14 12 10 10 9 7 6 6 7 8 9 10 10 11 11 11 8 5 5 6 4 3 3 2 2 2 2
4 2 3 4 4 5 6 7 12 13 16 18 16 14 14 16 15 15 15 14 13 13 12 11 10 10 8 6 4 4 4 4 7 8 10 11 10 11 9 5 5 5 3 2 2 2 2 2 2
4 4 5 6 4 5 7 9 13 13 13 15 15 15 15 15 13 13 14 15 13 12 12 12 11 9 8 5 5 4 4 4 4 6 10 11 10 10 8 4 4 4 3 4 4 3 2 2 1
6 5 6 6 2 4 6 6 10 14 17 17 18 17 17 13 12 13 13 14 14 14 13 12 12 11 9 7 5 4 4 4 4 5 8 11 11 10 8 6 4 4 3 4 3 3 2 2 2
7 5 6 5 3 4 5 2 4 6 8 12 14 16 16 18 19 18 17 16 15 15 15 14 12 11 10 8 5 3 2 1 2 4 5 7 10 10 8 7 6 5 5 4 4 4 4 3 2
7 7 4 2 2 2 4 3 7 6 6 11 13 13 15 16 15 16 17 17 17 16 14 13 12 11 10 9 7 7 6 5 6 5 5 5 9 9 9 8 7 6 4 5 5 4 4 4 3
7 6 3 1 3 1 1 3 7 2 6 11 14 15 16 17 18 18 18 18 16 15 14 12 11 11 10 10 10 9 7 6 4 4 5 6 5 7 8 8 6 5 4 5 5 4 4 4 4
4 2 6 6 5 1 5 4 6 6 10 11 13 15 15 16 16 16 14 12 12 12 12 12 12 11 11 10 10 10 9 7 6 6 6 5 4 4 5 6 6 5 5 5 5 5 5 4 4
4 6 4 4 4 6 5 4 8 10 10 12 13 15 15 15 16 15 14 14 13 14 13 12 12 10 10 10 10 9 9 8 8 7 6 5 4 4 5 5 5 5 5 5 4 4 5 5 4
5 10 8 5 5 5 4 4 7 7 8 9 9 11 13 14 15 16 16 16 15 15 13 12 13 11 11 11 10 8 8 6 6 6 5 5 5 5 5 6 6 6 5 5 4 4 5 4 5
6 6 10 7 2 1 5 6 6 3 2 4 6 7 11 14 15 16 16 16 15 15 15 14 13 11 11 11 9 8 8 7 6 5 5 5 5 5 5 5 5 5 5 5 4 3 4 4 4
9 8 7 6 4 3 5 4 4 3 1 3 6 7 7 10 12 13 14 15 14 13 12 11 11 11 10 10 9 8 7 6 5 5 5 5 4 4 4 4 5 5 4 4 3 2 2 2 2
5 5 6 6 6 6 3 7 6 6 6 7 6 7 9 10 11 11 11 11 10 8 9 9 9 9 9 9 8 7 5 5 5 4 5 5 4 4 4 4 4 4 3 3 3 2 2 2 1
8 9 9 6 4 6 5 7 7 4 5 8 8 8 8 9 10 10 10 10 9 9 9 9 8 8 8 8 7 6 5 5 5 4 4 3 3 3 3 3 3 3 3 2 3 3 2 1 1
Wind_Direction
280 244 161 74 54 64 86 92 98 88 66 66 78 84 83 68 99 123 137 130 130 128 124 119 114 111 109 107 105 104 103 103 103 102 102 102 102 102 102 102 101 102 103 103 103 103 104 105 106
261 222 100 59 80 88 88 100 93 98 116 103 83 81 76 73 90 115 124 132 132 129 127 124 119 116 113 111 109 108 107 106 105 105 105 105 104 104 103 103 103 103 104 105 105 106 106 106 107
238 184 82 67 94 118 119 113 109 109 110 102 96 73 75 106 115 124 138 137 127 123 127 128 123 120 118 116 114 112 111 109 107 107 108 108 108 107 107 107 107 107 106 108 108 109 108 107 107
97 53 47 71 97 118 125 126 119 112 90 83 93 78 75 110 118 132 137 132 123 121 127 129 127 124 122 120 119 117 115 113 112 111 111 111 110 110 110 110 110 110 110 111 111 111 109 107 104
80 69 51 58 86 104 121 126 123 110 93 94 97 101 86 93 120 130 134 132 128 126 128 130 129 127 126 124 122 120 119 118 116 115 114 113 113 113 113 113 113 113 114 115 115 114 112 109 103
48 60 65 65 88 99 116 118 109 102 109 108 107 106 102 125 130 135 134 131 130 131 129 131 132 130 129 128 126 126 124 122 121 120 118 116 116 117 117 118 118 118 119 118 118 117 114 109 98
109 92 118 128 110 116 126 125 121 123 125 126 125 108 120 134 138 136 133 130 130 130 129 130 133 134 133 132 131 130 129 128 126 124 123 121 121 121 121 122 123 123 123 122 122 121 116 107 95
142 108 82 100 116 125 131 120 136 134 125 134 131 126 148 147 137 132 130 130 131 134 135 135 134 136 135 136 136 136 135 134 132 131 131 129 128 127 125 125 128 129 128 128 128 126 120 109 94
109 84 132 164 144 144 126 114 122 115 131 149 124 131 146 138 134 131 130 131 139 143 145 145 143 143 142 142 142 141 141 141 139 140 140 135 131 132 132 134 134 136 137 137 138 140 134 109 82
101 131 199 185 153 144 135 130 130 115 117 109 112 125 136 137 140 141 146 149 153 156 160 159 156 157 155 150 145 147 147 148 148 149 147 146 147 146 144 146 144 145 148 151 159 163 166 321 28
137 167 188 155 144 137 133 137 121 125 133 145 144 146 147 144 147 151 154 157 160 162 162 164 165 166 163 151 153 157 155 158 162 165 163 159 156 153 148 149 151 154 160 170 196 225 264 286 293
67 195 156 144 134 131 134 132 123 140 158 155 150 150 151 152 155 159 158 159 161 163 166 168 169 169 167 159 163 164 164 171 176 178 173 162 156 156 157 160 166 175 183 194 215 240 258 272 268
33 219 155 141 126 129 121 129 125 132 140 145 148 150 154 157 158 160 159 159 161 165 168 169 169 170 168 163 171 170 174 181 182 177 175 168 165 166 170 178 187 197 196 196 213 231 242 245 261
291 300 161 145 134 126 117 114 109 136 142 149 155 159 162 163 160 156 159 162 164 167 167 166 165 165 162 166 172 171 176 180 178 177 178 174 171 170 170 173 186 197 199 201 207 214 207 207 211
331 17 357 133 131 131 108 90 139 150 150 156 164 168 167 167 164 165 168 169 167 166 164 161 161 161 161 162 167 169 173 175 175 178 178 175 174 174 173 173 184 199 203 200 199 204 178 198 233
2 42 13 275 153 155 115 153 176 158 157 162 171 174 174 173 172 171 171 169 165 162 163 166 166 163 161 159 158 160 167 169 177 179 177 177 178 178 173 175 192 197 188 186 175 180 164 218 235
13 20 251 279 223 153 120 165 182 168 164 168 175 178 177 175 177 175 173 170 166 165 165 167 162 165 165 160 156 156 161 170 177 177 177 178 180 179 173 180 197 192 176 184 201 183 173 200 235
252 255 260 245 238 146 140 169 176 179 172 174 178 179 178 180 182 177 171 169 167 166 166 166 165 168 162 153 142 139 147 168 175 178 184 183 182 183 177 184 196 186 169 186 195 187 190 198 219
245 282 281 268 241 153 157 166 180 185 181 176 179 183 184 186 180 170 170 170 169 169 168 169 169 173 165 162 161 161 176 182 185 190 192 191 190 187 181 184 186 177 179 189 185 180 197 220 189
260 273 285 295 284 141 161 186 187 188 190 185 183 185 185 178 172 171 170 174 177 177 176 173 176 176 176 177 173 169 168 183 190 194 194 196 195 193 191 181 188 190 187 194 193 180 180 229 175
266 238 248 256 333 42 109 315 242 217 204 195 190 188 183 181 179 177 175 181 179 182 182 181 180 179 181 175 164 155 139 152 190 200 204 205 201 200 200 194 190 197 190 198 203 191 182 210 237
252 251 241 231 97 272 131 208 266 227 208 198 194 189 187 184 182 180 178 181 184 186 183 179 178 180 183 177 177 177 183 196 208 204 202 205 205 204 206 202 197 198 198 201 211 200 192 189 228
224 252 243 202 132 45 5 144 269 244 211 208 196 195 191 186 183 184 184 185 185 182 180 179 178 182 186 187 186 187 197 204 205 198 200 204 207 207 207 203 198 198 201 209 214 208 203 197 207
213 19 21 43 72 274 238 163 255 227 209 207 198 195 191 184 183 184 184 178 176 175 178 179 182 189 189 190 189 192 197 199 199 203 202 207 206 208 207 202 200 205 205 209 213 215 214 214 215
117 94 33 358 10 252 256 187 237 234 212 196 191 193 190 181 179 179 177 176 177 178 180 181 185 193 191 191 193 194 197 195 199 202 200 199 203 211 217 213 209 211 213 215 212 218 226 220 221
175 141 156 183 216 274 316 235 256 244 208 185 181 180 177 179 182 183 182 180 182 180 179 183 187 194 195 195 197 195 193 195 203 203 196 198 205 215 215 212 214 216 213 218 210 222 230 228 228
154 166 165 141 177 261 289 291 318 4 139 153 155 159 175 181 181 182 180 181 182 180 180 187 190 193 196 198 195 195 195 195 199 199 193 198 206 212 209 209 215 217 213 213 206 223 234 228 225
160 156 103 120 155 238 293 283 243 261 196 139 138 156 175 173 174 175 177 180 181 180 179 179 187 193 195 195 197 200 199 198 194 189 196 199 202 204 194 205 210 212 210 202 196 206 217 199 220
150 131 122 133 152 158 241 275 242 207 184 155 144 151 159 157 162 163 168 170 167 165 166 173 184 187 186 188 190 193 193 189 184 190 204 200 192 190 187 197 198 195 197 189 176 189 189 183 223
165 172 150 156 208 166 169 264 282 193 168 136 126 130 139 140 149 151 149 149 152 156 169 175 184 185 186 183 178 183 181 178 183 195 202 189 178 179 180 176 169 171 170 165 167 177 183 182 190
Height
1503 1502 1501 1502 1506 1517 1521 1515 1509 1510 1513 1514 1513 1514 1518 1524 1530 1542 1541 1541 1542 1543 1544 1545 1545 1546 1546 1547 1547 1548 1548 1549 1550 1550 1551 1552 1552 1553 1554 1555 1556 1556 1557 1558 1559 1560 1560 1561 1561
1503 1502 1503 1504 1515 1532 1528 1515 1513 1513 1516 1515 1517 1519 1522 1529 1532 1536 1539 1542 1543 1544 1545 1546 1547 1548 1548 1549 1550 1550 1551 1552 1552 1553 1554 1554 1555 1556 1557 1558 1558 1559 1560 1561 1562 1562 1563 1564 1565
1504 1503 1505 1508 1518 1526 1525 1515 1514 1516 1516 1515 1519 1523 1527 1533 1535 1538 1540 1543 1544 1546 1547 1548 1549 1549 1550 1551 1552 1553 1553 1554 1555 1556 1556 1557 1558 1559 1560 1560 1561 1562 1563 1563 1564 1565 1566 1567 1567
1504 1505 1507 1514 1519 1512 1511 1513 1513 1516 1519 1519 1520 1527 1532 1536 1536 1539 1542 1544 1545 1547 1548 1549 1550 1551 1552 1553 1554 1555 1556 1556 1557 1558 1559 1559 1560 1561 1562 1563 1564 1564 1565 1566 1567 1568 1569 1569 1570
1505 1506 1514 1522 1516 1510 1508 1510 1512 1514 1519 1523 1523 1530 1535 1538 1539 1541 1543 1546 1546 1548 1550 1551 1552 1553 1554 1555 1556 1557 1558 1559 1560 1560 1561 1562 1563 1563 1564 1565 1566 1567 1568 1568 1569 1570 1571 1572 1573
1507 1509 1524 1530 1519 1511 1510 1511 1514 1518 1523 1526 1528 1532 1539 1541 1541 1543 1545 1547 1548 1549 1551 1552 1554 1555 1556 1557 1558 1559 1560 1561 1562 1562 1563 1564 1565 1566 1566 1567 1568 1569 1570 1571 1572 1573 1574 1575 1575
1508 1514 1524 1524 1520 1516 1513 1513 1514 1519 1524 1527 1528 1532 1540 1543 1543 1545 1547 1549 1550 1551 1553 1554 1555 1556 1558 1559 1560 1561 1561 1563 1564 1564 1565 1566 1567 1568 1569 1569 1570 1571 1572 1573 1574 1575 1576 1577 1578
1506 1513 1520 1522 1520 1518 1512 1513 1516 1517 1523 1529 1529 1532 1539 1542 1544 1547 1549 1551 1552 1553 1554 1556 1557 1558 1559 1560 1561 1562 1563 1564 1565 1566 1567 1568 1569 1570 1571 1572 1572 1573 1574 1575 1576 1577 1578 1579 1580
1506 1517 1525 1519 1517 1516 1512 1514 1519 1520 1523 1527 1529 1531 1536 1541 1545 1547 1550 1552 1553 1555 1556 1557 1558 1559 1560 1562 1563 1564 1565 1566 1567 1568 1569 1570 1571 1572 1573 1574 1575 1575 1576 1577 1578 1579 1580 1581 1582
1505 1519 1515 1507 1507 1510 1512 1513 1517 1522 1525 1528 1531 1536 1539 1542 1544 1546 1549 1551 1553 1555 1557 1558 1559 1560 1562 1563 1564 1565 1566 1567 1568 1569 1570 1571 1572 1573 1574 1575 1576 1577 1578 1579 1580 1581 1582 1583 1583
1504 1508 1505 1504 1505 1507 1512 1515 1516 1519 1526 1526 1529 1535 1539 1542 1544 1547 1549 1551 1553 1555 1557 1559 1560 1562 1563 1564 1565 1566 1567 1568 1569 1570 1571 1572 1573 1575 1576 1577 1578 1579 1580 1580 1581 1582 1583 1584 1584
1504 1502 1501 1502 1504 1507 1510 1514 1518 1518 1522 1525 1528 1532 1537 1541 1544 1546 1548 1551 1553 1555 1557 1559 1561 1562 1564 1565 1566 1567 1568 1569 1570 1571 1572 1573 1574 1575 1576 1578 1579 1580 1581 1582 1583 1583 1584 1585 1585
1503 1502 1501 1501 1503 1506 1509 1514 1517 1521 1524 1528 1531 1534 1537 1541 1544 1547 1549 1551 1553 1555 1557 1559 1560 1562 1563 1565 1567 1568 1569 1570 1571 1572 1573 1574 1575 1576 1577 1578 1579 1580 1581 1582 1583 1584 1585 1585 1585
1504 1502 1502 1503 1504 1506 1510 1515 1517 1524 1526 1530 1533 1535 1538 1540 1543 1546 1549 1550 1552 1554 1556 1558 1560 1561 1563 1565 1566 1568 1569 1570 1571 1572 1573 1574 1575 1576 1577 1578 1580 1580 1582 1583 1583 1584 1585 1585 1586
1502 1504 1504 1503 1505 1508 1510 1520 1519 1522 1525 1530 1533 1536 1538 1540 1542 1544 1546 1549 1551 1553 1556 1558 1560 1562 1563 1565 1566 1567 1568 1570 1571 1572 1573 1574 1575 1576 1577 1578 1579 1580 1581 1582 1583 1584 1585 1585 1586
1504 1510 1517 1508 1505 1507 1513 1530 1521 1521 1524 1528 1532 1535 1537 1539 1541 1543 1546 1548 1550 1553 1555 1557 1559 1561 1563 1564 1565 1566 1568 1569 1571 1572 1573 1574 1575 1576 1577 1578 1579 1580 1581 1582 1583 1583 1584 1584 1585
1517 1524 1521 1514 1504 1506 1513 1524 1520 1521 1522 1525 1529 1532 1535 1538 1540 1542 1544 1547 1549 1551 1554 1556 1558 1560 1562 1564 1565 1566 1568 1569 1570 1571 1572 1573 1574 1575 1576 1577 1578 1579 1580 1581 1582 1583 1583 1583 1584
1527 1522 1519 1517 1506 1506 1513 1517 1516 1518 1520 1522 1526 1529 1532 1534 1536 1539 1542 1545 1548 1551 1553 1555 1557 1559 1561 1563 1564 1566 1567 1568 1569 1571 1572 1573 1574 1575 1576 1577 1577 1578 1579 1580 1581 1582 1582 1582 1583
1515 1519 1520 1512 1502 1507 1513 1515 1515 1516 1519 1521 1523 1526 1529 1531 1534 1538 1541 1543 1546 1549 1551 1553 1555 1557 1559 1561 1562 1564 1565 1567 1568 1569 1571 1572 1573 1574 1574 1575 1576 1577 1578 1579 1579 1580 1581 1581 1581
1513 1520 1519 1511 1502 1506 1513 1515 1512 1513 1514 1515 1518 1521 1525 1529 1532 1535 1538 1540 1543 1546 1549 1551 1553 1555 1557 1559 1561 1562 1564 1566 1567 1568 1569 1570 1571 1572 1573 1573 1574 1575 1576 1577 1578 1578 1579 1579 1579
1513 1517 1516 1515 1508 1508 1515 1523 1517 1514 1513 1514 1515 1517 1521 1524 1527 1531 1534 1537 1540 1543 1546 1548 1551 1553 1555 1557 1559 1561 1562 1564 1565 1566 1566 1567 1568 1570 1570 1571 1572 1573 1574 1575 1575 1576 1576 1577 1577
1516 1504 1505 1508 1519 1528 1522 1542 1524 1515 1513 1512 1514 1516 1518 1522 1525 1527 1531 1534 1536 1540 1543 1546 1548 1551 1553 1554 1556 1557 1558 1559 1561 1563 1564 1565 1566 1567 1568 1569 1570 1571 1571 1572 1573 1573 1574 1574 1574
1505 1498 1501 1506 1516 1527 1525 1537 1530 1516 1516 1510 1508 1510 1512 1516 1520 1523 1526 1529 1533 1537 1541 1544 1546 1548 1550 1551 1553 1555 1556 1557 1559 1560 1561 1562 1564 1565 1565 1566 1567 1568 1569 1569 1570 1570 1571 1571 1571
1495 1501 1508 1517 1527 1542 1528 1534 1534 1518 1509 1503 1503 1505 1508 1512 1516 1520 1525 1529 1532 1536 1539 1542 1544 1545 1547 1548 1550 1552 1553 1555 1556 1557 1558 1560 1561 1562 1563 1563 1564 1565 1566 1566 1567 1567 1567 1567 1568
1498 1521 1543 1544 1554 1548 1526 1527 1526 1502 1496 1495 1497 1500 1503 1508 1513 1517 1522 1526 1529 1532 1535 1538 1541 1542 1544 1546 1548 1549 1551 1553 1554 1555 1556 1557 1558 1559 1560 1561 1561 1562 1562 1563 1563 1563 1563 1564 1564
1502 1517 1544 1555 1556 1546 1526 1527 1512 1493 1490 1491 1493 1496 1500 1505 1510 1514 1518 1522 1526 1529 1532 1535 1538 1539 1542 1544 1545 1547 1548 1550 1551 1552 1553 1554 1555 1556 1557 1557 1558 1558 1559 1559 1559 1560 1560 1560 1560
1501 1513 1516 1535 1538 1543 1536 1520 1505 1493 1492 1492 1494 1497 1500 1503 1507 1511 1515 1520 1523 1525 1528 1531 1534 1537 1539 1542 1543 1545 1546 1547 1548 1550 1551 1551 1552 1553 1553 1553 1554 1554 1555 1555 1556 1556 1556 1556 1556
1491 1500 1521 1536 1549 1552 1538 1528 1521 1503 1498 1495 1495 1498 1500 1502 1506 1509 1513 1516 1519 1523 1526 1529 1532 1535 1537 1539 1541 1542 1543 1544 1546 1547 1548 1548 1549 1549 1550 1550 1550 1551 1551 1552 1552 1552 1552 1552 1552
1494 1501 1515 1531 1537 1550 1550 1535 1502 1499 1495 1494 1495 1497 1500 1503 1506 1509 1512 1515 1519 1523 1526 1529 1531 1533 1535 1537 1538 1540 1541 1542 1543 1544 1545 1546 1546 1547 1547 1547 1547 1547 1548 1548 1549 1549 1549 1549 1549
1486 1496 1510 1529 1534 1537 1543 1532 1494 1492 1491 1491 1494 1498 1500 1503 1505 1508 1511 1514 1518 1522 1525 1527 1529 1531 1532 1535 1536 1538 1539 1540 1541 1541 1542 1543 1543 1544 1544 1545 1545 1545 1545 1546 1546 1546 1546 1546 1546